Time,TemperatureF,DewpointF,PressureIn,WindDirection,WindDirectionDegrees,WindSpeedMPH,WindSpeedGustMPH,Humidity,HourlyPrecipIn,Conditions,Clouds,dailyrainin,SolarRadiationWatts/m^2,SoftwareType,DateUTC
2013-04-27 00:03:00,68.0,66.0,-100.00,NE,47,5.0,8.0,94,0.00,,,0.00,0.000000,,2013-04-27 04:03:00,
2013-04-27 00:13:00,68.0,66.0,-100.00,NE,47,5.0,8.0,94,0.00,,,0.00,0.000000,,2013-04-27 04:13:00,
2013-04-27 00:43:00,68.0,67.0,-100.00,NE,43,6.0,8.0,97,0.00,,,0.00,0.000000,,2013-04-27 04:43:00,
2013-04-27 00:53:00,68.0,67.0,-100.00,NE,43,6.0,8.0,97,0.00,,,0.00,0.000000,,2013-04-27 04:53:00,
2013-04-27 01:02:00,68.0,67.0,-100.00,NE,43,6.0,8.0,97,0.00,,,0.00,0.000000,,2013-04-27 05:02:00,
2013-04-27 01:12:00,68.0,67.0,-100.00,NE,43,6.0,8.0,97,0.00,,,0.00,0.000000,,2013-04-27 05:12:00,
2013-04-27 01:42:00,65.0,65.0,-100.00,SE,146,0.0,7.0,100,0.00,,,0.00,0.000000,,2013-04-27 05:42:00,
2013-04-27 01:52:00,65.0,65.0,-100.00,SE,146,0.0,7.0,100,0.00,,,0.00,0.000000,,2013-04-27 05:52:00,
2013-04-27 02:02:00,65.0,65.0,-100.00,SE,146,0.0,7.0,100,0.00,,,0.00,0.000000,,2013-04-27 06:02:00,
2013-04-27 02:12:00,65.0,65.0,-100.00,SE,146,0.0,7.0,100,0.00,,,0.00,0.000000,,2013-04-27 06:12:00,
2013-04-27 02:42:00,64.0,64.0,-100.00,SSW,199,0.0,0.0,100,0.00,,,0.00,0.000000,,2013-04-27 06:42:00,
2013-04-27 02:52:00,64.0,64.0,-100.00,SSW,199,0.0,0.0,100,0.00,,,0.00,0.000000,,2013-04-27 06:52:00,
2013-04-27 03:02:00,64.0,64.0,-100.00,SSW,199,0.0,0.0,100,0.00,,,0.00,0.000000,,2013-04-27 07:02:00,
2013-04-27 03:11:00,64.0,64.0,-100.00,SSW,199,0.0,0.0,100,0.00,,,0.00,0.000000,,2013-04-27 07:11:00,
2013-04-27 03:42:00,63.0,63.0,-100.00,SE,138,0.0,0.0,100,0.00,,,0.00,0.000000,,2013-04-27 07:42:00,
2013-04-27 03:52:00,63.0,63.0,-100.00,SE,138,0.0,0.0,100,0.00,,,0.00,0.000000,,2013-04-27 07:52:00,
2013-04-27 04:02:00,63.0,63.0,-100.00,SE,138,0.0,0.0,100,0.00,,,0.00,0.000000,,2013-04-27 08:02:00,
2013-04-27 04:12:00,63.0,63.0,-100.00,SE,138,0.0,0.0,100,0.00,,,0.00,0.000000,,2013-04-27 08:12:00,
2013-04-27 04:42:00,62.0,62.0,-100.00,SW,214,0.0,0.0,100,0.00,,,0.00,0.000000,,2013-04-27 08:42:00,
2013-04-27 04:52:00,62.0,62.0,-100.00,SW,214,0.0,0.0,100,0.00,,,0.00,0.000000,,2013-04-27 08:52:00,
2013-04-27 05:01:00,62.0,62.0,-100.00,SW,214,0.0,0.0,100,0.00,,,0.00,0.000000,,2013-04-27 09:01:00,
2013-04-27 05:11:00,62.0,62.0,-100.00,SW,214,0.0,0.0,100,0.00,,,0.00,0.000000,,2013-04-27 09:11:00,
2013-04-27 05:43:00,62.0,62.0,-100.00,SW,214,0.0,0.0,100,0.00,,,0.00,0.000000,,2013-04-27 09:43:00,
2013-04-27 05:53:00,62.0,62.0,-100.00,SW,214,0.0,0.0,100,0.00,,,0.00,0.000000,,2013-04-27 09:53:00,
2013-04-27 06:03:00,62.0,62.0,-100.00,SW,214,0.0,0.0,100,0.00,,,0.00,0.000000,,2013-04-27 10:03:00,
2013-04-27 06:12:00,62.0,62.0,-100.00,SW,214,0.0,0.0,100,0.00,,,0.00,0.000000,,2013-04-27 10:12:00,
2013-04-27 06:42:00,62.0,62.0,-100.00,ENE,60,1.0,3.0,100,0.00,,,0.00,0.000000,,2013-04-27 10:42:00,
2013-04-27 06:52:00,62.0,62.0,-100.00,ENE,60,1.0,3.0,100,0.00,,,0.00,0.000000,,2013-04-27 10:52:00,
2013-04-27 07:02:00,62.0,62.0,-100.00,ENE,60,1.0,3.0,100,0.00,,,0.00,0.000000,,2013-04-27 11:02:00,
2013-04-27 07:12:00,62.0,62.0,-100.00,ENE,60,1.0,3.0,100,0.00,,,0.00,0.000000,,2013-04-27 11:12:00,
2013-04-27 07:42:00,63.0,63.0,-100.00,ENE,63,1.0,3.0,100,0.00,,,0.00,12.000000,,2013-04-27 11:42:00,
2013-04-27 07:52:00,63.0,63.0,-100.00,ENE,63,1.0,3.0,100,0.00,,,0.00,12.000000,,2013-04-27 11:52:00,
2013-04-27 08:02:00,63.0,63.0,-100.00,ENE,63,1.0,3.0,100,0.00,,,0.00,12.000000,,2013-04-27 12:02:00,
2013-04-27 08:11:00,63.0,63.0,-100.00,ENE,63,1.0,3.0,100,0.00,,,0.00,12.000000,,2013-04-27 12:11:00,
2013-04-27 08:42:00,66.0,66.0,-100.00,NE,43,4.0,5.0,100,0.00,,,0.00,144.000000,,2013-04-27 12:42:00,
2013-04-27 08:52:00,66.0,66.0,-100.00,NE,43,4.0,5.0,100,0.00,,,0.00,144.000000,,2013-04-27 12:52:00,
2013-04-27 09:02:00,66.0,66.0,-100.00,NE,43,4.0,5.0,100,0.00,,,0.00,144.000000,,2013-04-27 13:02:00,
2013-04-27 09:12:00,66.0,66.0,-100.00,NE,43,4.0,5.0,100,0.00,,,0.00,144.000000,,2013-04-27 13:12:00,
2013-04-27 09:42:00,74.0,68.0,-100.00,ENE,62,6.0,10.0,81,0.00,,,0.00,292.000000,,2013-04-27 13:42:00,
2013-04-27 09:52:00,74.0,68.0,-100.00,ENE,62,6.0,10.0,81,0.00,,,0.00,292.000000,,2013-04-27 13:52:00,
2013-04-27 10:02:00,74.0,68.0,-100.00,ENE,62,6.0,10.0,81,0.00,,,0.00,292.000000,,2013-04-27 14:02:00,
2013-04-27 10:11:00,74.0,68.0,-100.00,ENE,62,6.0,10.0,81,0.00,,,0.00,292.000000,,2013-04-27 14:11:00,
2013-04-27 10:42:00,79.0,65.0,-100.00,ENE,62,8.0,14.0,63,0.00,,,0.00,548.000000,,2013-04-27 14:42:00,
2013-04-27 10:52:00,79.0,65.0,-100.00,ENE,62,8.0,14.0,63,0.00,,,0.00,548.000000,,2013-04-27 14:52:00,
2013-04-27 11:01:00,79.0,65.0,-100.00,ENE,62,8.0,14.0,63,0.00,,,0.00,548.000000,,2013-04-27 15:01:00,
2013-04-27 11:12:00,79.0,65.0,-100.00,ENE,62,8.0,14.0,63,0.00,,,0.00,548.000000,,2013-04-27 15:12:00,
2013-04-27 11:43:00,79.0,62.0,-100.00,ENE,77,8.0,14.0,57,0.00,,,0.00,505.000000,,2013-04-27 15:43:00,
2013-04-27 11:53:00,79.0,62.0,-100.00,ENE,77,8.0,14.0,57,0.00,,,0.00,505.000000,,2013-04-27 15:53:00,
2013-04-27 12:03:00,79.0,62.0,-100.00,ENE,77,8.0,14.0,57,0.00,,,0.00,505.000000,,2013-04-27 16:03:00,
2013-04-27 12:13:00,79.0,62.0,-100.00,ENE,77,8.0,14.0,57,0.00,,,0.00,505.000000,,2013-04-27 16:13:00,
2013-04-27 12:42:00,79.0,61.0,-100.00,ENE,65,9.0,18.0,54,0.00,,,0.00,507.000000,,2013-04-27 16:42:00,
2013-04-27 12:53:00,79.0,61.0,-100.00,ENE,65,9.0,18.0,54,0.00,,,0.00,507.000000,,2013-04-27 16:53:00,
2013-04-27 13:02:00,79.0,61.0,-100.00,ENE,65,9.0,18.0,54,0.00,,,0.00,507.000000,,2013-04-27 17:02:00,
2013-04-27 13:12:00,79.0,61.0,-100.00,ENE,65,9.0,18.0,54,0.00,,,0.00,507.000000,,2013-04-27 17:12:00,
2013-04-27 13:42:00,82.0,60.0,-100.00,ESE,103,8.0,17.0,47,0.00,,,0.00,661.000000,,2013-04-27 17:42:00,
2013-04-27 13:53:00,82.0,60.0,-100.00,ESE,103,8.0,17.0,47,0.00,,,0.00,661.000000,,2013-04-27 17:53:00,
2013-04-27 14:02:00,82.0,60.0,-100.00,ESE,103,8.0,17.0,47,0.00,,,0.00,661.000000,,2013-04-27 18:02:00,
2013-04-27 14:12:00,82.0,60.0,-100.00,ESE,103,8.0,17.0,47,0.00,,,0.00,661.000000,,2013-04-27 18:12:00,
2013-04-27 14:42:00,85.0,58.0,-100.00,ENE,78,8.0,17.0,40,0.00,,,0.00,746.000000,,2013-04-27 18:42:00,
2013-04-27 14:52:00,85.0,58.0,-100.00,ENE,78,8.0,17.0,40,0.00,,,0.00,746.000000,,2013-04-27 18:52:00,
2013-04-27 15:02:00,85.0,58.0,-100.00,ENE,78,8.0,17.0,40,0.00,,,0.00,746.000000,,2013-04-27 19:02:00,
2013-04-27 15:11:00,85.0,58.0,-100.00,ENE,78,8.0,17.0,40,0.00,,,0.00,746.000000,,2013-04-27 19:11:00,
2013-04-27 15:42:00,82.0,57.0,-100.00,East,93,9.0,15.0,42,0.00,,,0.00,626.000000,,2013-04-27 19:42:00,
2013-04-27 15:53:00,82.0,57.0,-100.00,East,93,9.0,15.0,42,0.00,,,0.00,626.000000,,2013-04-27 19:53:00,
2013-04-27 16:02:00,82.0,57.0,-100.00,East,93,9.0,15.0,42,0.00,,,0.00,626.000000,,2013-04-27 20:02:00,
2013-04-27 16:11:00,82.0,57.0,-100.00,East,93,9.0,15.0,42,0.00,,,0.00,626.000000,,2013-04-27 20:11:00,
2013-04-27 16:42:00,86.0,57.0,-100.00,ENE,70,6.0,14.0,38,0.00,,,0.00,674.000000,,2013-04-27 20:42:00,
2013-04-27 16:52:00,86.0,57.0,-100.00,ENE,70,6.0,14.0,38,0.00,,,0.00,674.000000,,2013-04-27 20:52:00,
2013-04-27 17:02:00,86.0,57.0,-100.00,ENE,70,6.0,14.0,38,0.00,,,0.00,674.000000,,2013-04-27 21:02:00,
2013-04-27 17:12:00,86.0,57.0,-100.00,ENE,70,6.0,14.0,38,0.00,,,0.00,674.000000,,2013-04-27 21:12:00,
2013-04-27 17:43:00,85.0,58.0,-100.00,ENE,63,10.0,15.0,40,0.00,,,0.00,609.000000,,2013-04-27 21:43:00,
2013-04-27 17:53:00,85.0,58.0,-100.00,ENE,63,10.0,15.0,40,0.00,,,0.00,609.000000,,2013-04-27 21:53:00,
2013-04-27 18:03:00,85.0,58.0,-100.00,ENE,63,10.0,15.0,40,0.00,,,0.00,609.000000,,2013-04-27 22:03:00,
2013-04-27 18:13:00,85.0,58.0,-100.00,ENE,63,10.0,15.0,40,0.00,,,0.00,609.000000,,2013-04-27 22:13:00,
2013-04-27 18:42:00,81.0,61.0,-100.00,ENE,74,11.0,20.0,50,0.00,,,0.00,255.000000,,2013-04-27 22:42:00,
2013-04-27 18:53:00,81.0,61.0,-100.00,ENE,74,11.0,20.0,50,0.00,,,0.00,255.000000,,2013-04-27 22:53:00,
2013-04-27 19:02:00,81.0,61.0,-100.00,ENE,74,11.0,20.0,50,0.00,,,0.00,255.000000,,2013-04-27 23:02:00,
2013-04-27 19:12:00,81.0,61.0,-100.00,ENE,74,11.0,20.0,50,0.00,,,0.00,255.000000,,2013-04-27 23:12:00,
2013-04-27 19:42:00,76.0,59.0,-100.00,ENE,72,9.0,18.0,55,0.00,,,0.00,101.000000,,2013-04-27 23:42:00,
2013-04-27 19:52:00,76.0,59.0,-100.00,ENE,72,9.0,18.0,55,0.00,,,0.00,101.000000,,2013-04-27 23:52:00,
2013-04-27 20:02:00,76.0,59.0,-100.00,ENE,72,9.0,18.0,55,0.00,,,0.00,101.000000,,2013-04-28 00:02:00,
2013-04-27 20:12:00,76.0,59.0,-100.00,ENE,72,9.0,18.0,55,0.00,,,0.00,101.000000,,2013-04-28 00:12:00,
2013-04-27 20:43:00,73.0,60.0,-100.00,ENE,75,5.0,12.0,64,0.00,,,0.00,20.000000,,2013-04-28 00:43:00,
2013-04-27 20:52:00,73.0,60.0,-100.00,ENE,75,5.0,12.0,64,0.00,,,0.00,20.000000,,2013-04-28 00:52:00,
2013-04-27 21:02:00,73.0,60.0,-100.00,ENE,75,5.0,12.0,64,0.00,,,0.00,20.000000,,2013-04-28 01:02:00,
2013-04-27 21:11:00,73.0,60.0,-100.00,ENE,75,5.0,12.0,64,0.00,,,0.00,20.000000,,2013-04-28 01:11:00,
2013-04-27 21:42:00,68.0,61.0,-100.00,ENE,76,2.0,6.0,77,0.00,,,0.00,0.000000,,2013-04-28 01:42:00,
2013-04-27 21:52:00,68.0,61.0,-100.00,ENE,76,2.0,6.0,77,0.00,,,0.00,0.000000,,2013-04-28 01:52:00,
2013-04-27 22:02:00,68.0,61.0,-100.00,ENE,76,2.0,6.0,77,0.00,,,0.00,0.000000,,2013-04-28 02:02:00,
2013-04-27 22:12:00,68.0,61.0,-100.00,ENE,76,2.0,6.0,77,0.00,,,0.00,0.000000,,2013-04-28 02:12:00,
2013-04-27 22:42:00,67.0,62.0,-100.00,NE,47,1.0,4.0,84,0.00,,,0.00,0.000000,,2013-04-28 02:42:00,
2013-04-27 22:52:00,67.0,62.0,-100.00,NE,47,1.0,4.0,84,0.00,,,0.00,0.000000,,2013-04-28 02:52:00,
2013-04-27 23:01:00,67.0,62.0,-100.00,NE,47,1.0,4.0,84,0.00,,,0.00,0.000000,,2013-04-28 03:01:00,
2013-04-27 23:11:00,67.0,62.0,-100.00,NE,47,1.0,4.0,84,0.00,,,0.00,0.000000,,2013-04-28 03:11:00,
2013-04-27 23:43:00,63.0,62.0,-100.00,South,177,0.0,0.0,97,0.00,,,0.00,0.000000,,2013-04-28 03:43:00,
2013-04-27 23:53:00,63.0,62.0,-100.00,South,177,0.0,0.0,97,0.00,,,0.00,0.000000,,2013-04-28 03:53:00,